Regional Weather Roundup
Issued by NWS

Home | Current Version | Previous Version | Text Only | Print | Product List | Glossary Off
Versions: 1 2 3 4 5 6 7 8 9 10 11 12 13 14 15 16 17 18 19 20 21 22 23 24 25 26 27 28 29 30 31 32 33 34 35 36 37 38 39 40 41 42 43 44 45 46 47 48 49 50

000
ASUS43 KFSD 291010
RWRSD

WEATHER ROUNDUP FOR SOUTH DAKOTA
NATIONAL WEATHER SERVICE SIOUX FALLS SD
500 AM CDT MON MAY 29 2017

NOTE: "FAIR" INDICATES FEW OR NO CLOUDS BELOW 12,000 FEET WITH NO
SIGNIFICANT WEATHER AND/OR OBSTRUCTIONS TO VISIBILITY.


SDZ001>005-009-010-012>017-291100-
NORTHWEST AND NORTH CENTRAL SOUTH DAKOTA

CITY           SKY/WX    TMP DP  RH WIND       PRES   REMARKS
BUFFALO          N/A     43  34  70 NW8       30.07R
FAITH            N/A     41  36  82 W10       30.08R
MOBRIDGE       CLEAR     48  39  71 NW12      29.98R
$$

SDZ012>016-024>037-041>051-057-063-072>074-291100-
SOUTHWEST AND SOUTH CENTRAL SOUTH DAKOTA

CITY           SKY/WX    TMP DP  RH WIND       PRES   REMARKS
RAPID CTY ARPT CLEAR     43  36  76 NW7       30.13R
PIERRE         CLEAR     48  39  71 NW12      30.01R
CUSTER         CLEAR     42  28  57 NW6       30.17S
ELLSWORTH AFB  CLEAR     42  37  81 NW7       30.13R
PHILIP         PTCLDY    42  36  79 NW7       30.07S
PINE RIDGE     CLEAR     43  42  97 CALM      30.12R
SPEARFISH      FAIR      43  34  70 W7        30.16S
WINNER         FAIR      48  42  80 W8        30.03R
$$

SDZ004>011-016>023-039-040-291100-
NORTHEAST SOUTH DAKOTA

CITY           SKY/WX    TMP DP  RH WIND       PRES   REMARKS
ABERDEEN       PTCLDY    48  40  73 NW14      29.91S
WATERTOWN      CLOUDY    49  44  83 NW13      29.88R
BROOKINGS      CLEAR     48  43  82 W12       29.89R
SISSETON         N/A     53  47  79 NW15      29.83R
$$

SDZ017-020-022-023-036>040-048>070-291100-
SOUTHEAST SOUTH DAKOTA

CITY           SKY/WX    TMP DP  RH WIND       PRES   REMARKS
SIOUX FALLS    CLEAR     50  45  83 NW8       29.91R
HURON          CLEAR     47  42  83 W10       29.94R
CHAMBERLAIN    PTCLDY    50  43  77 W8        30.00R
MITCHELL       CLEAR     50  44  80 NW12      29.96R
YANKTON        PTCLDY    51  46  83 W9        29.95R
$$

ABBREVIATIONS USED IN REMARKS
   TC - TEMPERATURE IN CELSIUS
  WCI - WIND CHILL INDEX
   HX - HEAT INDEX
  VSB - VISIBILITY





USA.gov is the U.S. government's official web portal to all federal, state and local government web resources and services.